This demonstration page uses our WeatherBlox Daily Observations layout. Learn more.

Left ArrowRight Arrow

30.21309, -93.2044

Hourly Observations for February 24, 2022

Temp ( °F °C ) Dew Point ( °F °C ) Humidity (%) Winds ( mph kmh ) Pressure ( in mb ) Visibility ( mi km ) Precip ( " mm )
12:15 am 00:15 Cloudy with Mist and Fog 48 9 47 8.3 95 95 NNE 6 9 30.14 1021 2 2 0.00 0.00
12:35 am 00:35 Cloudy with Mist and Fog 48 9 47 8.4 96 96 NE 7 11 30.13 1020 2 3 0.00 0.00
12:55 am 00:55 Cloudy with Mist and Fog 48 9 47 8.4 96 96 NNE 7 11 30.13 1020 2 3 0.00 0.00
1:15 am 01:15 Cloudy with Mist and Fog 48 9 47 8.4 96 96 NE 8 13 30.13 1020 2 2 0.00 0.00
1:35 am 01:35 Cloudy with Mist and Fog 48 9.1 47 8.5 96 96 NE 7 11 30.13 1020 2 2 0.00 0.00
1:55 am 01:55 Cloudy with Mist and Fog 48 9.1 47 8.5 96 96 NNE 6 9 30.12 1020 2 2 0.00 0.00
2:15 am 02:15 Cloudy with Mist and Fog 48 9.1 47 8.4 95 95 NNE 6 9 30.12 1020 2 2 0.00 0.00
2:35 am 02:35 Cloudy with Mist and Fog 48 9 47 8.4 96 96 NNE 7 11 30.11 1020 1 2 0.00 0.00
2:55 am 02:55 Cloudy with Mist and Fog 48 9 47 8.4 96 96 NNE 7 11 30.10 1019 1 2 0.00 0.00
3:15 am 03:15 Cloudy with Mist and Fog 48 9 47 8.4 96 96 NNE 6 9 30.09 1019 1 2 0.00 0.00
3:35 am 03:35 Cloudy with Mist and Fog 48 9 47 8.4 96 96 NNE 5 7 30.09 1019 1 2 0.00 0.00
3:55 am 03:55 Cloudy with Mist and Fog 48 9 47 8.4 96 96 NNE 7 11 30.09 1019 2 3 0.00 0.00
4:15 am 04:15 Cloudy with Mist and Fog 48 9 47 8.4 96 96 NNE 5 7 30.09 1019 2 2 0.00 0.00
4:35 am 04:35 Cloudy with Mist and Fog 48 8.8 47 8.3 97 97 NNE 8 13 30.09 1019 2 2 0.00 0.00
4:55 am 04:55 Cloudy with Mist and Fog 48 8.9 47 8.3 96 96 NNE 5 7 30.09 1019 2 3 0.00 0.00
5:15 am 05:15 Cloudy with Mist and Fog 48 8.9 47 8.3 96 96 NNE 6 9 30.09 1019 2 2 0.00 0.00
5:35 am 05:35 Cloudy with Mist and Fog 48 9.1 47 8.5 96 96 NNE 6 9 30.09 1019 2 2 0.00 0.00
6:00 am 06:00 Cloudy with Mist and Fog 48 9 46 8 94 94 NNE 8 13 30.09 1019 2 3 0.00 0.00
6:50 am 06:50 Cloudy with Mist and Fog 48 9 48 9 100 100 NNE 8 13 30.10 1019 2 3 0.00 0.00
7:50 am 07:50 Cloudy with Light Rain 48 9 48 9 100 100 NNE 5 7 30.13 1020 3 5 0.00 0.00
8:55 am 08:55 Cloudy with Light Rain 50 10 48 9 94 94 N 6 9 30.15 1021 3 5 0.00 0.00
9:50 am 09:50 Cloudy with Light Rain 52 11 50 10 94 94 N 6 9 30.15 1021 2 3 0.00 0.00
10:50 am 10:50 Cloudy with Mist and Fog 55 13 54 12 94 94 ENE 6 9 30.13 1020 5 8 0.00 0.00
1:47 pm 13:47 Cloudy 66 19 61 16 83 83 NNE 3 6 30.06 1018 7 11 0.00 0.00
2:55 pm 14:55 Cloudy 70 21 63 17 78 78 ESE 14 22 30.03 1017 10 16 0.00 0.00
3:45 pm 15:45 Cloudy 70 21 63 17 78 78 NNE 6 9 30.04 1017 10 16 0.00 0.00
4:45 pm 16:45 Cloudy 70 21 61 16 73 73 NNE 6 9 30.05 1018 10 16 0.00 0.00
5:47 pm 17:47 Cloudy 66 19 61 16 83 83 Calm 30.07 1018 10 16 0.00 0.00
6:45 pm 18:45 Cloudy 63 17 55 13 77 77 NW 10 17 30.09 1019 10 16 0.00 0.00
7:55 pm 19:55 Cloudy 59 15 54 12 82 82 NW 12 19 30.13 1020 10 16 0.00 0.00
8:45 pm 20:45 Cloudy 55 13 52 11 88 88 NW 14 22 30.16 1021 10 16 0.00 0.00
9:45 pm 21:45 Cloudy 52 11 48 9 88 88 N 15 24 30.18 1022 10 16 0.00 0.00
10:15 pm 22:15 Cloudy 49 9.5 47 8.1 91 91 NNW 20 31 30.19 1022 10 16 0.00 0.00
10:35 pm 22:35 Cloudy 48 9.1 46 7.7 91 91 NNW 18 30 30.20 1023 10 16 0.00 0.00
10:55 pm 22:55 Cloudy 47 8.5 45 7.2 92 92 N 16 26 30.20 1023 10 16 0.00 0.00
11:15 pm 23:15 Cloudy 47 8.4 44 6.4 87 87 NNW 18 30 30.22 1023 10 16 0.00 0.00
11:35 pm 23:35 Cloudy 47 8.4 43 6.1 86 86 N 15 24 30.23 1024 10 16 0.00 0.00
11:55 pm 23:55 Cloudy 47 8.4 42 5.8 84 84 N 15 24 30.23 1024 10 16 0.00 0.00

Powered by AerisWeather